Wetterdaten: aktuell Samstag, 17.08.2019 15:45
Datum Zeit Temperatur Bodentemp. Luftfeuchte Luftdruck Regen Wind Richtung Richtung Sonnenschein
17.08.2019 15:45 23,8 C 13,9 C 35 % 1008 hPa 0,0 l/m 20,2 km/h (4 Bft) S-SW22.5 205 0 min
17.08.2019 15:41 24,1 C 14,1 C 35 % 1008 hPa 0,0 l/m 14,8 km/h (3 Bft) S-SW45 195 0 min
17.08.2019 15:35 24,0 C 14,4 C 32 % 1008 hPa 0,0 l/m 20,1 km/h (4 Bft) SW45 230 0 min
17.08.2019 15:30 24,4 C 14,5 C 31 % 1008 hPa 0,0 l/m 19,9 km/h (4 Bft) W-SW45 245 0 min
17.08.2019 15:25 24,5 C 14,6 C 32 % 1008 hPa 0,0 l/m 24,0 km/h (4 Bft) W-SW67.5 245 0 min
17.08.2019 15:20 24,1 C 14,2 C 33 % 1008 hPa 0,0 l/m 20,0 km/h (4 Bft) SW67.5 230 0 min
17.08.2019 15:15 23,5 C 13,9 C 35 % 1009 hPa 0,0 l/m 18,0 km/h (3 Bft) S-SW67.5 210 0 min
17.08.2019 15:10 23,2 C 13,7 C 35 % 1009 hPa 0,0 l/m 18,4 km/h (3 Bft) W-SW45 245 0 min
17.08.2019 15:06 23,2 C 13,7 C 35 % 1009 hPa 0,0 l/m 29,5 km/h (5 Bft) SW45 235 0 min
17.08.2019 15:00 23,3 C 13,9 C 34 % 1009 hPa 0,0 l/m 27,3 km/h (5 Bft) W-SW22.5 240 0 min
17.08.2019 14:55 23,4 C 14,0 C 34 % 1009 hPa 0,0 l/m 24,7 km/h (4 Bft) W-SW67.5 250 0 min
17.08.2019 14:50 23,6 C 14,0 C 33 % 1008 hPa 0,0 l/m 18,1 km/h (3 Bft) W45 265 0 min
17.08.2019 14:45 24,2 C 14,1 C 34 % 1008 hPa 0,0 l/m 16,1 km/h (3 Bft) SW45 220 0 min
17.08.2019 14:40 23,6 C 14,0 C 36 % 1008 hPa 0,0 l/m 27,1 km/h (5 Bft) S-SW22.5 195 0 min
17.08.2019 14:35 23,2 C 13,5 C 35 % 1008 hPa 0,0 l/m 24,5 km/h (4 Bft) SW45 230 0 min
17.08.2019 14:30 23,6 C 13,7 C 34 % 1008 hPa 0,0 l/m 19,6 km/h (3 Bft) S-SW67.5 205 0 min
17.08.2019 14:25 24,3 C 14,1 C 33 % 1008 hPa 0,0 l/m 24,5 km/h (4 Bft) S-SW45 195 0 min
17.08.2019 14:20 24,5 C 14,1 C 35 % 1008 hPa 0,0 l/m 17,3 km/h (3 Bft) S-SW45 195 0 min
17.08.2019 14:15 24,3 C 13,9 C 35 % 1008 hPa 0,0 l/m 18,1 km/h (3 Bft) S-SW45 205 0 min
17.08.2019 14:10 23,9 C 13,7 C 36 % 1008 hPa 0,0 l/m 16,8 km/h (3 Bft) S-SW22.5 200 0 min
17.08.2019 14:05 23,2 C 13,6 C 36 % 1008 hPa 0,0 l/m 15,8 km/h (3 Bft) SW22.5 220 0 min
17.08.2019 14:00 23,0 C 13,4 C 36 % 1008 hPa 0,0 l/m 14,5 km/h (3 Bft) W-SW67.5 245 0 min
17.08.2019 13:55 23,2 C 13,6 C 35 % 1008 hPa 0,0 l/m 25,3 km/h (4 Bft) S-SW67.5 210 0 min
17.08.2019 13:50 23,6 C 13,6 C 34 % 1008 hPa 0,0 l/m 18,5 km/h (3 Bft) SW45 225 0 min
17.08.2019 13:45 23,5 C 13,6 C 33 % 1008 hPa 0,0 l/m 20,6 km/h (4 Bft) SW67.5 235 0 min
17.08.2019 13:40 23,8 C 13,6 C 32 % 1008 hPa 0,0 l/m 26,0 km/h (4 Bft) SW45 225 0 min
17.08.2019 13:35 24,1 C 13,7 C 31 % 1008 hPa 0,0 l/m 20,5 km/h (4 Bft) SW45 220 0 min
17.08.2019 13:30 24,2 C 13,9 C 30 % 1008 hPa 0,0 l/m 24,3 km/h (4 Bft) SW45 220 0 min
17.08.2019 13:25 24,3 C 14,1 C 30 % 1008 hPa 0,0 l/m 24,2 km/h (4 Bft) SW45 215 0 min
17.08.2019 13:20 24,3 C 14,2 C 30 % 1008 hPa 0,0 l/m 18,6 km/h (3 Bft) SW67.5 225 0 min
17.08.2019 13:15 24,4 C 14,1 C 30 % 1008 hPa 0,0 l/m 22,7 km/h (4 Bft) SW45 220 0 min
17.08.2019 13:10 23,7 C 14,0 C 31 % 1008 hPa 0,0 l/m 24,0 km/h (4 Bft) SW45 225 5 min
17.08.2019 13:05 23,7 C 13,7 C 31 % 1008 hPa 0,0 l/m 23,0 km/h (4 Bft) SW67.5 215 0 min
17.08.2019 13:00 23,6 C 13,7 C 30 % 1008 hPa 0,0 l/m 32,0 km/h (5 Bft) SW45 230 0 min
17.08.2019 12:55 23,7 C 13,7 C 30 % 1008 hPa 0,0 l/m 24,6 km/h (4 Bft) W-SW45 240 0 min
17.08.2019 12:50 23,9 C 13,6 C 28 % 1008 hPa 0,0 l/m 25,4 km/h (4 Bft) W-SW45 250 0 min
17.08.2019 12:45 24,3 C 13,8 C 28 % 1008 hPa 0,0 l/m 29,8 km/h (5 Bft) SW67.5 225 0 min
17.08.2019 12:40 24,5 C 14,0 C 30 % 1008 hPa 0,0 l/m 16,0 km/h (3 Bft) S-SW67.5 195 0 min
17.08.2019 12:35 24,9 C 13,9 C 29 % 1008 hPa 0,0 l/m 17,5 km/h (3 Bft) S-SW45 210 0 min
17.08.2019 12:30 24,6 C 13,9 C 29 % 1008 hPa 0,0 l/m 16,4 km/h (3 Bft) S-SW45 195 0 min
17.08.2019 12:25 24,1 C 13,8 C 30 % 1008 hPa 0,0 l/m 21,5 km/h (4 Bft) S-SW45 195 5 min
17.08.2019 12:20 24,2 C 13,6 C 29 % 1008 hPa 0,0 l/m 27,2 km/h (5 Bft) SW45 215 5 min
17.08.2019 12:15 23,9 C 13,8 C 31 % 1008 hPa 0,0 l/m 15,5 km/h (3 Bft) S-SW45 195 4 min
17.08.2019 12:11 23,6 C 13,7 C 32 % 1008 hPa 0,0 l/m 21,8 km/h (4 Bft) S-SW22.5 195 6 min
17.08.2019 12:05 23,0 C 13,2 C 33 % 1008 hPa 0,0 l/m 21,8 km/h (4 Bft) S-SW22.5 195 0 min
17.08.2019 12:00 22,8 C 13,0 C 33 % 1009 hPa 0,0 l/m 24,9 km/h (4 Bft) SW45 225 0 min
17.08.2019 11:55 23,1 C 13,1 C 32 % 1009 hPa 0,0 l/m 20,6 km/h (4 Bft) SW67.5 235 0 min
17.08.2019 11:50 23,5 C 13,3 C 33 % 1009 hPa 0,0 l/m 18,1 km/h (3 Bft) S-SW22.5 195 5 min
17.08.2019 11:45 22,9 C 13,4 C 35 % 1008 hPa 0,0 l/m 20,0 km/h (4 Bft) S22.5 190 5 min
_ Min-Zeit 05:30 04:35 16:00 05:45 - 17:10 - - -
Minimum _ 16,3 C 8,4 C 5 % 1008 hPa - 0,0 km/h (0 Bft) - - -
_ Max-Zeit 16:05 15:25 04:20 16:00 04:05 10:55 - - 12:11
Maximum _ 25,4 C 14,6 C 76 % 1015 hPa 0,4 l/m 37,0 km/h
W-SW (5 Bft)
- - 6 min
Durchschnitt _ 20,7 C 11,3 C 41 % 1011 hPa #0,4 l/m 11,7 km/h (2 Bft) S-SW - #1:20 h